This demonstration page uses our WeatherBlox Daily Observations layout. Learn more.

Left ArrowRight Arrow

Hourly Observations for April 24, 2021

Temp ( °F °C ) Dew Point ( °F °C ) Humidity (%) Winds ( mph kmh ) Pressure ( in mb ) Visibility ( mi km ) Precip ( " mm )
12:53 am 00:53 Mostly Clear 61 16.1 37 2.8 41 41 E 7 11 30.04 1017 10 16 0.00 0.00
1:53 am 01:53 Cloudy with Light Rain 61 16.1 39 3.9 44 44 ENE 3 6 30.00 1016 10 16 0.00 0.00
2:53 am 02:53 Cloudy 60 15.6 38 3.3 44 44 E 7 11 29.98 1015 10 16 0.00 0.00
3:53 am 03:53 Cloudy with Light Rain 58 14.4 45 7.2 62 62 E 6 9 29.97 1015 10 16 0.00 0.00
4:53 am 04:53 Cloudy 54 12.2 48 8.9 80 80 NE 3 6 29.95 1014 10 16 0.00 0.00
5:53 am 05:53 Cloudy with Light Rain 57 13.9 48 8.9 72 72 VRB 5 7 29.93 1014 10 16 0.00 0.00
6:53 am 06:53 Cloudy with Rain 54 12.2 52 11.1 93 93 E 8 13 29.91 1013 4 6 0.15 3.81
7:14 am 07:14 Cloudy with Rain 54 12.2 52 11.1 93 93 ENE 6 9 29.92 1013 6 10 0.03 0.76
7:40 am 07:40 Cloudy with Heavy Rain 54 12.2 52 11.1 93 93 ENE 8 13 29.91 1013 3 5 0.13 3.30
7:53 am 07:53 Cloudy with Heavy Rain 54 12.2 53 11.7 97 97 ENE 7 11 29.89 1012 3 5 0.19 4.83
8:08 am 08:08 Cloudy with Heavy Rain 55 12.8 53 11.7 93 93 ENE 10 17 29.89 1012 2 3 0.12 3.05
8:13 am 08:13 Cloudy with Heavy Rain 55 12.8 53 11.7 93 93 ENE 9 15 29.89 1012 2 3 0.18 4.57
8:22 am 08:22 Cloudy with Heavy Rain 54 12.2 53 11.7 97 97 ENE 8 13 29.89 1012 3 4 0.24 6.10
8:31 am 08:31 Mostly Cloudy with Heavy Rain 55 12.8 54 12.2 96 96 ENE 6 9 29.89 1012 3 5 0.30 7.62
8:53 am 08:53 Cloudy with Heavy Rain 56 13.3 54 12.2 93 93 ENE 10 17 29.85 1011 3 5 0.47 11.94
9:14 am 09:14 Cloudy with Heavy Rain 56 13.3 54 12.2 93 93 ESE 10 17 29.85 1011 3 4 0.14 3.56
9:24 am 09:24 Cloudy with Heavy Rain 56 13.3 55 12.8 97 97 E 9 15 29.83 1010 2 3 0.24 6.10
9:30 am 09:30 Cloudy with Heavy Rain 56 13.3 55 12.8 97 97 E 12 19 29.83 1010 2 3 0.28 7.11
9:38 am 09:38 Cloudy with Heavy Rain 56 13.3 55 12.8 97 97 E 12 19 29.82 1010 3 5 0.33 8.38
9:45 am 09:45 Cloudy with Heavy Rain 56 13.3 55 12.8 97 97 ESE 8 13 29.83 1010 3 5 0.37 9.40
9:49 am 09:49 Cloudy with Heavy Rain 55 13 55 13 100 100 E 14 22 29.82 1010 2 3 0.44 11.18
9:53 am 09:53 Cloudy with Heavy Rain 56 13.3 55 12.8 97 97 E 12 19 29.80 1009 2 2 0.47 11.94
10:03 am 10:03 Cloudy with Heavy Rain 57 13.9 56 13.3 96 96 Calm 29.84 1010 2 2 0.08 2.03
10:05 am 10:05 Cloudy with Rain 57 13.9 56 13.3 96 96 Calm 29.84 1010 2 3 0.09 2.29
10:13 am 10:13 Cloudy with Rain 57 13.9 55 12.8 93 93 ENE 15 24 29.75 1007 3 4 0.13 3.30
10:22 am 10:22 Cloudy with Light Rain 57 13.9 56 13.3 96 96 VRB 7 11 29.80 1009 7 11 0.13 3.30
10:33 am 10:33 Cloudy 58 14.4 56 13.3 93 93 E 12 19 29.77 1008 10 16 0.13 3.30
10:43 am 10:43 Cloudy 58 14.4 56 13.3 93 93 S 7 11 29.81 1009 10 16 0.13 3.30
10:53 am 10:53 Cloudy 59 15 57 13.9 93 93 S 8 13 29.80 1009 10 16 0.13 3.30
11:07 am 11:07 Cloudy 59 15 56 13.3 90 90 SSE 8 13 29.81 1010 10 16 0.00 0.00
11:31 am 11:31 Cloudy 61 16.1 59 15 93 93 SE 9 15 29.79 1009 10 16 0.00 0.00
11:46 am 11:46 Cloudy 62 16.7 59 15 90 90 SSE 9 15 29.79 1009 10 16 0.00 0.00
11:53 am 11:53 Cloudy 63 17.2 60 15.6 90 90 S 8 13 29.77 1008 10 16 0.00 0.00
12:53 pm 12:53 Cloudy 65 18.3 62 16.7 90 90 S 7 11 29.77 1008 10 16 0.00 0.00
1:10 pm 13:10 Cloudy 66 18.9 61 16.1 84 84 S 7 11 29.73 1007 10 16 0.00 0.00
1:18 pm 13:18 Cloudy 66 18.9 61 16.1 84 84 SSW 8 13 29.73 1007 10 16 0.00 0.00
1:53 pm 13:53 Partly Cloudy 67 19.4 61 16.1 81 81 S 6 9 29.70 1006 10 16 0.00 0.00
2:25 pm 14:25 Mostly Cloudy 69 20.6 61 16.1 76 76 SSW 6 9 29.71 1006 10 16 0.00 0.00
2:53 pm 14:53 Mostly Cloudy 71 21.7 61 16.1 71 71 SW 9 15 29.70 1006 10 16 0.00 0.00
3:07 pm 15:07 Partly Cloudy 73 22.8 61 16.1 66 66 WSW 8 13 29.68 1005 10 16 0.00 0.00
3:53 pm 15:53 Mostly Cloudy 75 23.9 60 15.6 60 60 SW 7 11 29.67 1005 10 16 0.00 0.00
4:53 pm 16:53 Mostly Sunny 78 25.6 57 13.9 48 48 SW 9 15 29.63 1003 10 16 0.00 0.00
5:24 pm 17:24 Mostly Cloudy with Nearby Thunderstorms 76 24.4 57 13.9 52 52 SSW 3 6 29.60 1002 10 16 0.00 0.00
5:39 pm 17:39 Cloudy with Light Rain 69 20.6 60 15.6 73 73 SSW 13 20 29.64 1004 5 8 0.06 1.52
5:53 pm 17:53 Partly Cloudy 67 19.4 62 16.7 84 84 SSW 7 11 29.63 1004 10 16 0.06 1.52
6:20 pm 18:20 Mostly Cloudy with Nearby Thunderstorms 67 19.4 62 16.7 84 84 SSE 8 13 29.61 1003 10 16 0.00 0.00
6:36 pm 18:36 Mostly Cloudy with Light Rain 66 18.9 63 17.2 90 90 Calm 29.61 1003 10 16 0.00 0.00
6:53 pm 18:53 Mostly Sunny 67 19.4 62 16.7 84 84 SSW 8 13 29.63 1003 10 16 0.00 0.00
7:53 pm 19:53 Mostly Sunny 66 18.9 62 16.7 87 87 E 6 9 29.61 1003 10 16 0.00 0.00
8:10 pm 20:10 Partly Cloudy with Nearby Thunderstorms 65 18.3 62 16.7 90 90 undefined N/A 29.62 1003 10 16 0.00 0.00
8:20 pm 20:20 Windy with Storms Likely 64 17.8 60 15.6 87 87 NW 20 31 29.65 1004 7 11 0.03 0.76
8:29 pm 20:29 Cloudy with Strong Thunderstorms 63 17.2 58 14.4 84 84 W 18 30 29.67 1005 2 3 0.15 3.81
8:34 pm 20:34 Cloudy with Thunderstorms 62 16.7 58 14.4 86 86 W 12 19 29.67 1005 3 5 0.17 4.32
8:53 pm 20:53 Cloudy with Nearby Thunderstorms 61 16.1 57 13.9 87 87 S 5 7 29.63 1004 9 14 0.20 5.08
9:11 pm 21:11 Partly Cloudy 60 15.6 57 13.9 90 90 S 6 9 29.66 1004 10 16 0.00 0.00
9:53 pm 21:53 Mostly Cloudy 59 15 58 14.4 96 96 W 6 9 29.69 1006 10 16 0.00 0.00
10:53 pm 22:53 Mostly Cloudy 60 15.6 58 14.4 93 93 SSW 3 6 29.72 1006 10 16 0.00 0.00
11:00 pm 23:00 Cloudy 60 15.6 58 14.4 93 93 SW 3 6 29.73 1007 10 16 0.00 0.00
11:53 pm 23:53 Clear 59 15 58 14.4 96 96 Calm 29.72 1007 10 16 0.00 0.00

Powered by AerisWeather